Time,TemperatureF,DewpointF,PressureIn,WindDirection,WindDirectionDegrees,WindSpeedMPH,WindSpeedGustMPH,Humidity,HourlyPrecipIn,Conditions,Clouds,dailyrainin,SoftwareType,DateUTC
2013-04-17 00:00:00,44.1,33.8,30.23,WSW,250,1.4,6.0,67,0.00,RA,,0.00,WeatherDisplay:10.37,2013-04-17 04:00:00,
2013-04-17 00:05:00,44.0,34.1,30.23,NW,325,2.4,6.0,68,0.00,RA,,0.00,WeatherDisplay:10.37,2013-04-17 04:05:00,
2013-04-17 00:10:00,43.9,33.6,30.23,NNW,329,2.5,8.1,67,0.00,CLR,,0.00,WeatherDisplay:10.37,2013-04-17 04:10:00,
2013-04-17 00:15:00,43.7,33.5,30.24,NNW,335,1.3,8.1,67,0.00,CLR,,0.00,WeatherDisplay:10.37,2013-04-17 04:15:00,
2013-04-17 00:20:00,43.6,33.4,30.24,WNW,302,1.7,8.1,67,0.00,CLR,,0.00,WeatherDisplay:10.37,2013-04-17 04:20:00,
2013-04-17 00:25:00,43.5,33.3,30.24,WNW,295,2.5,8.1,67,0.00,CLR,,0.00,WeatherDisplay:10.37,2013-04-17 04:25:00,
2013-04-17 00:30:00,43.5,33.6,30.24,WNW,290,0.8,8.1,68,0.00,CLR,,0.00,WeatherDisplay:10.37,2013-04-17 04:30:00,
2013-04-17 00:35:00,43.4,33.5,30.24,East,89,0.3,8.1,68,0.00,CLR,,0.00,WeatherDisplay:10.37,2013-04-17 04:35:00,
2013-04-17 00:40:00,43.2,33.7,30.24,WNW,302,1.4,8.1,69,0.00,CLR,,0.00,WeatherDisplay:10.37,2013-04-17 04:40:00,
2013-04-17 00:45:00,43.2,33.7,30.24,NW,308,1.4,8.1,69,0.00,CLR,,0.00,WeatherDisplay:10.37,2013-04-17 04:45:00,
2013-04-17 00:50:00,43.1,33.3,30.24,WNW,283,1.7,8.1,68,0.00,CLR,,0.00,WeatherDisplay:10.37,2013-04-17 04:50:00,
2013-04-17 00:55:00,43.1,33.3,30.24,WNW,301,0.7,8.1,68,0.00,CLR,,0.00,WeatherDisplay:10.37,2013-04-17 04:55:00,
2013-04-17 01:00:00,42.9,33.1,30.25,West,281,2.3,8.1,68,0.00,CLR,,0.00,WeatherDisplay:10.37,2013-04-17 05:00:00,
2013-04-17 01:05:00,42.7,33.2,30.25,West,259,0.6,8.1,69,0.00,CLR,,0.00,WeatherDisplay:10.37,2013-04-17 05:05:00,
2013-04-17 01:10:00,42.4,33.3,30.25,WNW,290,1.4,8.1,70,0.00,CLR,,0.00,WeatherDisplay:10.37,2013-04-17 05:10:00,
2013-04-17 01:15:00,42.2,33.1,30.25,WNW,287,0.4,8.1,70,0.00,CLR,,0.00,WeatherDisplay:10.37,2013-04-17 05:15:00,
2013-04-17 01:20:00,41.9,33.2,30.25,NW,316,0.4,8.1,71,0.00,CLR,,0.00,WeatherDisplay:10.37,2013-04-17 05:20:00,
2013-04-17 01:25:00,41.7,33.0,30.25,West,263,1.0,8.1,71,0.00,CLR,,0.00,WeatherDisplay:10.37,2013-04-17 05:25:00,
2013-04-17 01:30:00,41.7,33.0,30.25,WNW,284,0.8,8.1,71,0.00,CLR,,0.00,WeatherDisplay:10.37,2013-04-17 05:30:00,
2013-04-17 01:35:00,41.5,32.8,30.25,NW,308,2.1,8.1,71,0.00,CLR,,0.00,WeatherDisplay:10.37,2013-04-17 05:35:00,
2013-04-17 01:40:00,41.5,33.1,30.25,West,281,1.1,8.1,72,0.00,CLR,,0.00,WeatherDisplay:10.37,2013-04-17 05:40:00,
2013-04-17 01:45:00,41.3,33.0,30.25,West,280,1.0,8.1,72,0.00,CLR,,0.00,WeatherDisplay:10.37,2013-04-17 05:45:00,
2013-04-17 01:50:00,41.1,32.8,30.25,NNE,23,0.0,8.1,72,0.00,CLR,,0.00,WeatherDisplay:10.37,2013-04-17 05:50:00,
2013-04-17 01:55:00,40.9,32.9,30.25,West,262,0.5,8.1,73,0.00,CLR,,0.00,WeatherDisplay:10.37,2013-04-17 05:55:00,
2013-04-17 02:00:00,41.0,33.0,30.25,NNE,15,0.0,8.1,73,0.00,CLR,,0.00,WeatherDisplay:10.37,2013-04-17 06:00:00,
2013-04-17 02:05:00,40.9,32.6,30.25,NW,304,0.1,8.1,72,0.00,,,0.00,WeatherDisplay:10.37,2013-04-17 06:05:00,
2013-04-17 02:10:00,40.8,32.5,30.26,West,274,2.0,8.1,72,0.00,,,0.00,WeatherDisplay:10.37,2013-04-17 06:10:00,
2013-04-17 02:15:00,40.9,32.6,30.26,NW,311,0.0,8.1,72,0.00,,,0.00,WeatherDisplay:10.37,2013-04-17 06:15:00,
2013-04-17 02:20:00,40.5,32.5,30.26,NW,311,0.0,8.1,73,0.00,,,0.00,WeatherDisplay:10.37,2013-04-17 06:20:00,
2013-04-17 02:25:00,40.4,32.4,30.26,NW,314,0.1,8.1,73,0.00,,,0.00,WeatherDisplay:10.37,2013-04-17 06:25:00,
2013-04-17 02:30:00,40.5,32.9,30.26,WNW,300,0.0,8.1,74,0.00,,,0.00,WeatherDisplay:10.37,2013-04-17 06:30:00,
2013-04-17 02:35:00,40.6,32.6,30.26,NW,311,0.0,8.1,73,0.00,,,0.00,WeatherDisplay:10.37,2013-04-17 06:35:00,
2013-04-17 02:40:00,40.3,32.3,30.26,NW,312,0.0,8.1,73,0.00,,,0.00,WeatherDisplay:10.37,2013-04-17 06:40:00,
2013-04-17 02:45:00,40.4,32.8,30.26,West,271,0.1,8.1,74,0.00,,,0.00,WeatherDisplay:10.37,2013-04-17 06:45:00,
2013-04-17 02:50:00,40.3,33.0,30.26,WSW,248,0.0,8.1,75,0.00,,,0.00,WeatherDisplay:10.37,2013-04-17 06:50:00,
2013-04-17 02:55:00,40.2,32.2,30.26,NW,313,0.8,8.1,73,0.00,,,0.00,WeatherDisplay:10.37,2013-04-17 06:55:00,
2013-04-17 03:00:00,40.2,32.6,30.26,WNW,295,0.5,8.1,74,0.00,,,0.00,WeatherDisplay:10.37,2013-04-17 07:00:00,
2013-04-17 03:05:00,40.0,32.7,30.26,WNW,283,0.0,8.1,75,0.00,,,0.00,WeatherDisplay:10.37,2013-04-17 07:05:00,
2013-04-17 03:10:00,39.9,32.6,30.26,West,276,0.4,8.1,75,0.00,,,0.00,WeatherDisplay:10.37,2013-04-17 07:10:00,
2013-04-17 03:15:00,39.9,32.9,30.26,West,274,0.1,8.1,76,0.00,,,0.00,WeatherDisplay:10.37,2013-04-17 07:15:00,
2013-04-17 03:20:00,39.7,32.8,30.26,WNW,284,0.0,8.1,76,0.00,,,0.00,WeatherDisplay:10.37,2013-04-17 07:20:00,
2013-04-17 03:25:00,39.1,32.2,30.26,WNW,284,0.0,8.1,76,0.00,,,0.00,WeatherDisplay:10.37,2013-04-17 07:25:00,
2013-04-17 03:30:00,38.5,31.9,30.25,WNW,283,0.0,8.1,77,0.00,,,0.00,WeatherDisplay:10.37,2013-04-17 07:30:00,
2013-04-17 03:35:00,38.4,32.5,30.25,WNW,284,0.0,8.1,79,0.00,,,0.00,WeatherDisplay:10.37,2013-04-17 07:35:00,
2013-04-17 03:40:00,38.0,32.1,30.25,WNW,284,0.0,8.1,79,0.00,,,0.00,WeatherDisplay:10.37,2013-04-17 07:40:00,
2013-04-17 03:45:00,37.6,32.0,30.25,WNW,284,0.0,8.1,80,0.00,,,0.00,WeatherDisplay:10.37,2013-04-17 07:45:00,
2013-04-17 03:50:00,37.4,31.5,30.25,WNW,284,0.0,8.1,79,0.00,,,0.00,WeatherDisplay:10.37,2013-04-17 07:50:00,
2013-04-17 03:55:00,37.1,30.9,30.26,WNW,284,0.0,8.1,78,0.00,,,0.00,WeatherDisplay:10.37,2013-04-17 07:55:00,
2013-04-17 04:00:00,36.7,31.7,30.26,WNW,284,0.0,8.1,82,0.00,,,0.00,WeatherDisplay:10.37,2013-04-17 08:00:00,
2013-04-17 04:05:00,36.4,31.1,30.26,WNW,283,0.0,8.1,81,0.00,,,0.00,WeatherDisplay:10.37,2013-04-17 08:05:00,
2013-04-17 04:10:00,36.1,30.8,30.26,WNW,284,0.0,8.1,81,0.00,,,0.00,WeatherDisplay:10.37,2013-04-17 08:10:00,
2013-04-17 04:15:00,36.2,31.2,30.26,WNW,284,0.0,8.1,82,0.00,,,0.00,WeatherDisplay:10.37,2013-04-17 08:15:00,
2013-04-17 04:20:00,36.6,31.9,30.26,WNW,284,0.0,8.1,83,0.00,,,0.00,WeatherDisplay:10.37,2013-04-17 08:20:00,
2013-04-17 04:25:00,36.5,31.2,30.26,WNW,284,0.0,8.1,81,0.00,,,0.00,WeatherDisplay:10.37,2013-04-17 08:25:00,
2013-04-17 04:30:00,36.1,30.8,30.26,WNW,284,0.0,8.1,81,0.00,,,0.00,WeatherDisplay:10.37,2013-04-17 08:30:00,
2013-04-17 04:35:00,35.9,30.9,30.27,WNW,284,0.0,8.1,82,0.00,,,0.00,WeatherDisplay:10.37,2013-04-17 08:35:00,
2013-04-17 04:40:00,35.6,30.6,30.27,WNW,284,0.0,8.1,82,0.00,,,0.00,WeatherDisplay:10.37,2013-04-17 08:40:00,
2013-04-17 04:45:00,35.3,30.9,30.27,WNW,284,0.0,8.1,84,0.00,,,0.00,WeatherDisplay:10.37,2013-04-17 08:45:00,
2013-04-17 04:50:00,34.9,30.8,30.27,WNW,284,0.0,8.1,85,0.00,,,0.00,WeatherDisplay:10.37,2013-04-17 08:50:00,
2013-04-17 04:55:00,34.6,30.8,30.27,WNW,284,0.0,8.1,86,0.00,,,0.00,WeatherDisplay:10.37,2013-04-17 08:55:00,
2013-04-17 05:00:00,34.2,30.4,30.28,WNW,284,0.0,8.1,86,0.00,,,0.00,WeatherDisplay:10.37,2013-04-17 09:00:00,
2013-04-17 05:05:00,33.8,30.3,30.28,WNW,284,0.0,8.1,87,0.00,,,0.00,WeatherDisplay:10.37,2013-04-17 09:05:00,
2013-04-17 05:10:00,33.8,30.9,30.28,SW,224,0.1,8.1,89,0.00,,,0.00,WeatherDisplay:10.37,2013-04-17 09:10:00,
2013-04-17 05:15:00,34.5,31.9,30.28,SW,224,0.0,8.1,90,0.00,,,0.00,WeatherDisplay:10.37,2013-04-17 09:15:00,
2013-04-17 05:20:00,34.8,31.9,30.28,SW,224,0.0,8.1,89,0.00,,,0.00,WeatherDisplay:10.37,2013-04-17 09:20:00,
2013-04-17 05:25:00,34.6,31.4,30.28,SW,224,0.0,8.1,88,0.00,,,0.00,WeatherDisplay:10.37,2013-04-17 09:25:00,
2013-04-17 05:30:00,34.6,31.7,30.28,SW,224,0.0,8.1,89,0.00,,,0.00,WeatherDisplay:10.37,2013-04-17 09:30:00,
2013-04-17 05:35:00,34.3,31.4,30.29,SW,224,0.0,8.1,89,0.00,,,0.00,WeatherDisplay:10.37,2013-04-17 09:35:00,
2013-04-17 05:40:00,33.9,30.7,30.29,SW,224,0.0,8.1,88,0.00,,,0.00,WeatherDisplay:10.37,2013-04-17 09:40:00,
2013-04-17 05:45:00,33.5,30.6,30.29,SW,224,0.0,8.1,89,0.00,,,0.00,WeatherDisplay:10.37,2013-04-17 09:45:00,
2013-04-17 05:50:00,33.4,30.8,30.29,SW,224,0.0,8.1,90,0.00,,,0.00,WeatherDisplay:10.37,2013-04-17 09:50:00,
2013-04-17 05:55:00,33.6,31.3,30.30,SW,224,0.2,8.1,91,0.00,,,0.00,WeatherDisplay:10.37,2013-04-17 09:55:00,
2013-04-17 06:00:00,34.3,31.9,30.30,SSW,205,0.0,8.1,91,0.00,,,0.00,WeatherDisplay:10.37,2013-04-17 10:00:00,
2013-04-17 06:05:00,34.3,31.4,30.30,SSW,206,0.0,8.1,89,0.00,CLR,,0.00,WeatherDisplay:10.37,2013-04-17 10:05:00,
2013-04-17 06:10:00,34.1,30.9,30.30,SSW,206,0.0,8.1,88,0.00,CLR,,0.00,WeatherDisplay:10.37,2013-04-17 10:10:00,
2013-04-17 06:15:00,33.9,30.7,30.30,SSW,205,0.0,8.1,88,0.00,CLR,,0.00,WeatherDisplay:10.37,2013-04-17 10:15:00,
2013-04-17 06:20:00,33.5,30.3,30.31,SSW,205,0.0,8.1,88,0.00,CLR,,0.00,WeatherDisplay:10.37,2013-04-17 10:20:00,
2013-04-17 06:25:00,33.3,30.1,30.31,SSW,205,0.0,8.1,88,0.00,CLR,,0.00,WeatherDisplay:10.37,2013-04-17 10:25:00,
2013-04-17 06:30:00,33.3,30.7,30.31,SSW,205,0.0,8.1,90,0.00,CLR,,0.00,WeatherDisplay:10.37,2013-04-17 10:30:00,
2013-04-17 06:35:00,33.2,30.6,30.32,SSW,205,0.0,8.1,90,0.00,CLR,,0.00,WeatherDisplay:10.37,2013-04-17 10:35:00,
2013-04-17 06:40:00,33.1,30.8,30.32,SSW,205,0.0,8.1,91,0.00,CLR,,0.00,WeatherDisplay:10.37,2013-04-17 10:40:00,
2013-04-17 06:45:00,33.2,30.9,30.32,SSW,206,0.0,8.1,91,0.00,CLR,,0.00,WeatherDisplay:10.37,2013-04-17 10:45:00,
2013-04-17 06:50:00,33.6,31.3,30.32,SSW,205,0.0,8.1,91,0.00,CLR,,0.00,WeatherDisplay:10.37,2013-04-17 10:50:00,
2013-04-17 06:55:00,34.2,31.8,30.32,SSW,205,0.0,8.1,91,0.00,CLR,,0.00,WeatherDisplay:10.37,2013-04-17 10:55:00,
2013-04-17 07:00:00,34.4,31.5,30.32,SSW,206,0.0,8.1,89,0.00,CLR,,0.00,WeatherDisplay:10.37,2013-04-17 11:00:00,
2013-04-17 07:05:00,34.7,32.1,30.33,SW,224,0.0,8.1,90,0.00,CLR,,0.00,WeatherDisplay:10.37,2013-04-17 11:05:00,
2013-04-17 07:10:00,35.0,32.1,30.33,SW,224,0.0,8.1,89,0.00,CLR,,0.00,WeatherDisplay:10.37,2013-04-17 11:10:00,
2013-04-17 07:15:00,35.6,32.4,30.33,SW,223,0.0,8.1,88,0.00,CLR,,0.00,WeatherDisplay:10.37,2013-04-17 11:15:00,
2013-04-17 07:20:00,36.7,32.9,30.33,WNW,287,0.0,8.1,86,0.00,CLR,,0.00,WeatherDisplay:10.37,2013-04-17 11:20:00,
2013-04-17 07:25:00,37.5,32.8,30.34,WNW,295,0.4,8.1,83,0.00,CLR,,0.00,WeatherDisplay:10.37,2013-04-17 11:25:00,
2013-04-17 07:30:00,38.4,33.1,30.34,NW,305,0.9,8.1,81,0.00,CLR,,0.00,WeatherDisplay:10.37,2013-04-17 11:30:00,
2013-04-17 07:35:00,38.9,32.9,30.34,NW,321,1.5,8.1,79,0.00,CLR,,0.00,WeatherDisplay:10.37,2013-04-17 11:35:00,
2013-04-17 07:40:00,39.3,33.3,30.34,NW,318,0.2,8.1,79,0.00,CLR,,0.00,WeatherDisplay:10.37,2013-04-17 11:40:00,
2013-04-17 07:45:00,39.6,33.6,30.34,West,260,0.0,8.1,79,0.00,CLR,,0.00,WeatherDisplay:10.37,2013-04-17 11:45:00,
2013-04-17 07:50:00,40.3,33.7,30.34,NW,312,0.2,8.1,77,0.00,CLR,,0.00,WeatherDisplay:10.37,2013-04-17 11:50:00,
2013-04-17 07:55:00,40.9,33.9,30.34,NNW,341,1.2,8.1,76,0.00,CLR,,0.00,WeatherDisplay:10.37,2013-04-17 11:55:00,
2013-04-17 08:00:00,41.2,34.2,30.34,WNW,287,0.9,8.1,76,0.00,CLR,,0.00,WeatherDisplay:10.37,2013-04-17 12:00:00,
2013-04-17 08:05:00,41.6,34.3,30.35,WNW,286,0.0,8.1,75,0.00,CLR,,0.00,WeatherDisplay:10.37,2013-04-17 12:05:00,
2013-04-17 08:10:00,41.9,33.2,30.35,NW,314,3.1,8.1,71,0.00,CLR,,0.00,WeatherDisplay:10.37,2013-04-17 12:10:00,
2013-04-17 08:15:00,42.1,33.7,30.35,West,266,0.2,8.1,72,0.00,CLR,,0.00,WeatherDisplay:10.37,2013-04-17 12:15:00,
2013-04-17 08:20:00,42.5,33.4,30.35,WNW,290,1.6,8.1,70,0.00,CLR,,0.00,WeatherDisplay:10.37,2013-04-17 12:20:00,
2013-04-17 08:25:00,42.7,34.3,30.36,WSW,246,0.6,8.1,72,0.00,CLR,,0.00,WeatherDisplay:10.37,2013-04-17 12:25:00,
2013-04-17 08:30:00,43.1,34.7,30.36,WNW,302,1.4,8.1,72,0.00,CLR,,0.00,WeatherDisplay:10.37,2013-04-17 12:30:00,
2013-04-17 08:35:00,43.4,33.9,30.36,North,11,0.0,8.1,69,0.00,CLR,,0.00,WeatherDisplay:10.37,2013-04-17 12:35:00,
2013-04-17 08:40:00,43.7,34.2,30.35,North,6,0.0,8.1,69,0.00,CLR,,0.00,WeatherDisplay:10.37,2013-04-17 12:40:00,
2013-04-17 08:45:00,44.0,34.1,30.35,WNW,299,0.9,8.1,68,0.00,CLR,,0.00,WeatherDisplay:10.37,2013-04-17 12:45:00,
2013-04-17 08:50:00,44.5,34.6,30.35,NW,319,2.0,8.1,68,0.00,CLR,,0.00,WeatherDisplay:10.37,2013-04-17 12:50:00,
2013-04-17 08:55:00,44.4,34.1,30.35,West,270,0.9,8.1,67,0.00,CLR,,0.00,WeatherDisplay:10.37,2013-04-17 12:55:00,
2013-04-17 09:00:00,44.0,34.8,30.36,NW,304,1.5,8.1,70,0.00,CLR,,0.00,WeatherDisplay:10.37,2013-04-17 13:00:00,
2013-04-17 09:05:00,43.8,34.6,30.36,NW,316,1.8,8.1,70,0.00,CLR,,0.00,WeatherDisplay:10.37,2013-04-17 13:05:00,
2013-04-17 09:10:00,44.3,34.8,30.36,WNW,287,1.3,8.1,69,0.00,CLR,,0.00,WeatherDisplay:10.37,2013-04-17 13:10:00,
2013-04-17 09:15:00,44.5,35.3,30.36,WNW,283,1.6,8.1,70,0.00,CLR,,0.00,WeatherDisplay:10.37,2013-04-17 13:15:00,
2013-04-17 09:20:00,44.8,34.5,30.36,NNW,336,1.4,8.1,67,0.00,CLR,,0.00,WeatherDisplay:10.37,2013-04-17 13:20:00,
2013-04-17 09:25:00,44.9,34.2,30.36,WNW,298,1.7,8.1,66,0.00,CLR,,0.00,WeatherDisplay:10.37,2013-04-17 13:25:00,
2013-04-17 09:30:00,45.0,35.1,30.36,WSW,249,0.4,8.1,68,0.00,CLR,,0.00,WeatherDisplay:10.37,2013-04-17 13:30:00,
2013-04-17 09:35:00,45.3,35.0,30.36,NE,40,1.9,8.1,67,0.00,CLR,,0.00,WeatherDisplay:10.37,2013-04-17 13:35:00,
2013-04-17 09:40:00,45.3,35.0,30.36,NW,319,1.4,8.1,67,0.00,CLR,,0.00,WeatherDisplay:10.37,2013-04-17 13:40:00,
2013-04-17 09:45:00,45.2,34.5,30.36,East,86,2.0,8.1,66,0.00,CLR,,0.00,WeatherDisplay:10.37,2013-04-17 13:45:00,
2013-04-17 09:50:00,45.2,34.9,30.36,NE,40,1.8,8.1,67,0.00,CLR,,0.00,WeatherDisplay:10.37,2013-04-17 13:50:00,
2013-04-17 09:55:00,45.2,34.5,30.36,NNE,18,3.6,8.1,66,0.00,CLR,,0.00,WeatherDisplay:10.37,2013-04-17 13:55:00,
2013-04-17 10:00:00,45.3,35.4,30.36,NNW,340,0.5,8.1,68,0.00,CLR,,0.00,WeatherDisplay:10.37,2013-04-17 14:00:00,
2013-04-17 10:05:00,45.4,35.5,30.35,NW,317,1.8,8.1,68,0.00,,,0.00,WeatherDisplay:10.37,2013-04-17 14:05:00,
2013-04-17 10:10:00,45.6,35.6,30.36,WNW,300,1.2,8.1,68,0.00,,,0.00,WeatherDisplay:10.37,2013-04-17 14:10:00,
2013-04-17 10:15:00,46.0,35.7,30.36,ENE,64,3.5,8.1,67,0.00,,,0.00,WeatherDisplay:10.37,2013-04-17 14:15:00,
2013-04-17 10:20:00,46.1,36.1,30.36,ESE,105,1.3,8.1,68,0.00,,,0.00,WeatherDisplay:10.37,2013-04-17 14:20:00,
2013-04-17 10:25:00,46.3,35.9,30.36,NNE,20,2.9,8.1,67,0.00,,,0.00,WeatherDisplay:10.37,2013-04-17 14:25:00,
2013-04-17 10:30:00,46.5,36.1,30.37,NW,313,1.6,8.1,67,0.00,,,0.00,WeatherDisplay:10.37,2013-04-17 14:30:00,
2013-04-17 10:35:00,46.1,35.4,30.37,WNW,290,3.8,8.1,66,0.00,,,0.00,WeatherDisplay:10.37,2013-04-17 14:35:00,
2013-04-17 10:40:00,46.4,36.8,30.37,NNW,333,3.6,8.1,69,0.00,,,0.00,WeatherDisplay:10.37,2013-04-17 14:40:00,
2013-04-17 10:45:00,46.5,37.2,30.36,NNE,12,0.9,8.1,70,0.00,,,0.00,WeatherDisplay:10.37,2013-04-17 14:45:00,
2013-04-17 10:50:00,46.5,36.9,30.36,NW,325,2.8,8.1,69,0.00,,,0.00,WeatherDisplay:10.37,2013-04-17 14:50:00,
2013-04-17 10:55:00,46.6,37.0,30.36,NE,53,1.5,8.1,69,0.00,,,0.00,WeatherDisplay:10.37,2013-04-17 14:55:00,
2013-04-17 11:00:00,47.1,36.7,30.36,North,351,2.5,8.1,67,0.00,,,0.00,WeatherDisplay:10.37,2013-04-17 15:00:00,
2013-04-17 11:05:00,47.2,36.4,30.36,NNE,15,3.9,8.1,66,0.00,,,0.00,WeatherDisplay:10.37,2013-04-17 15:05:00,
2013-04-17 11:10:00,47.3,35.7,30.36,NNW,340,4.0,8.1,64,0.00,,,0.00,WeatherDisplay:10.37,2013-04-17 15:10:00,
2013-04-17 11:15:00,47.5,35.9,30.36,ENE,57,3.6,8.1,64,0.00,,,0.00,WeatherDisplay:10.37,2013-04-17 15:15:00,
2013-04-17 11:20:00,47.5,36.7,30.35,NE,40,2.3,8.1,66,0.00,,,0.00,WeatherDisplay:10.37,2013-04-17 15:20:00,
2013-04-17 11:25:00,47.9,36.7,30.35,ENE,58,2.2,8.1,65,0.00,,,0.00,WeatherDisplay:10.37,2013-04-17 15:25:00,
2013-04-17 11:30:00,47.4,37.0,30.35,NNW,343,3.4,9.2,67,0.00,,,0.00,WeatherDisplay:10.37,2013-04-17 15:30:00,
2013-04-17 11:35:00,47.5,36.7,30.35,ENE,70,2.6,9.2,66,0.00,,,0.00,WeatherDisplay:10.37,2013-04-17 15:35:00,
2013-04-17 11:40:00,47.2,35.6,30.35,North,6,3.7,9.2,64,0.00,,,0.00,WeatherDisplay:10.37,2013-04-17 15:40:00,
2013-04-17 11:45:00,47.9,37.8,30.35,NE,40,3.4,9.2,68,0.00,,,0.00,WeatherDisplay:10.37,2013-04-17 15:45:00,
2013-04-17 11:50:00,48.3,37.5,30.35,ENE,75,3.8,9.2,66,0.00,,,0.00,WeatherDisplay:10.37,2013-04-17 15:50:00,
2013-04-17 11:55:00,48.1,36.1,30.35,East,98,2.4,9.2,63,0.00,,,0.00,WeatherDisplay:10.37,2013-04-17 15:55:00,
2013-04-17 12:00:00,48.4,35.6,30.36,North,352,2.2,9.2,61,0.00,,,0.00,WeatherDisplay:10.37,2013-04-17 16:00:00,
2013-04-17 12:05:00,49.0,36.5,30.35,NE,49,2.9,9.2,62,0.00,,,0.00,WeatherDisplay:10.37,2013-04-17 16:05:00,
2013-04-17 12:10:00,48.8,35.5,30.36,ENE,60,4.0,9.2,60,0.00,,,0.00,WeatherDisplay:10.37,2013-04-17 16:10:00,
2013-04-17 12:15:00,49.2,35.9,30.36,NE,50,0.8,9.2,60,0.00,,,0.00,WeatherDisplay:10.37,2013-04-17 16:15:00,
2013-04-17 12:20:00,49.7,35.9,30.36,ENE,60,5.0,9.2,59,0.00,,,0.00,WeatherDisplay:10.37,2013-04-17 16:20:00,
2013-04-17 12:25:00,49.8,35.2,30.36,SE,136,0.0,9.2,57,0.00,,,0.00,WeatherDisplay:10.37,2013-04-17 16:25:00,
2013-04-17 12:30:00,49.9,35.3,30.36,WSW,243,2.3,9.2,57,0.00,,,0.00,WeatherDisplay:10.37,2013-04-17 16:30:00,
2013-04-17 12:35:00,50.1,36.3,30.36,NE,37,0.7,9.2,59,0.00,,,0.00,WeatherDisplay:10.37,2013-04-17 16:35:00,
2013-04-17 12:40:00,50.3,34.7,30.36,North,4,2.1,9.2,55,0.00,,,0.00,WeatherDisplay:10.37,2013-04-17 16:40:00,
2013-04-17 12:45:00,50.3,36.5,30.35,WNW,283,2.1,9.2,59,0.00,,,0.00,WeatherDisplay:10.37,2013-04-17 16:45:00,
2013-04-17 12:50:00,50.5,36.3,30.35,NE,52,1.7,9.2,58,0.00,,,0.00,WeatherDisplay:10.37,2013-04-17 16:50:00,
2013-04-17 12:55:00,50.6,35.9,30.35,NE,44,1.8,9.2,57,0.00,,,0.00,WeatherDisplay:10.37,2013-04-17 16:55:00,
2013-04-17 13:00:00,50.9,34.4,30.35,NNE,33,1.4,9.2,53,0.00,,,0.00,WeatherDisplay:10.37,2013-04-17 17:00:00,
2013-04-17 13:05:00,51.2,36.9,30.35,ENE,62,3.4,9.2,58,0.00,,,0.00,WeatherDisplay:10.37,2013-04-17 17:05:00,
2013-04-17 13:10:00,51.7,39.5,30.35,NW,311,2.0,9.2,63,0.00,,,0.00,WeatherDisplay:10.37,2013-04-17 17:10:00,
2013-04-17 13:15:00,51.6,37.7,30.35,WNW,295,2.9,9.2,59,0.00,,,0.00,WeatherDisplay:10.37,2013-04-17 17:15:00,
2013-04-17 13:20:00,51.4,38.0,30.35,NNW,337,4.0,9.2,60,0.00,,,0.00,WeatherDisplay:10.37,2013-04-17 17:20:00,
2013-04-17 13:25:00,51.4,37.5,30.35,NNW,342,3.2,9.2,59,0.00,,,0.00,WeatherDisplay:10.37,2013-04-17 17:25:00,
2013-04-17 13:30:00,51.5,37.6,30.34,NNW,338,4.2,9.2,59,0.00,,,0.00,WeatherDisplay:10.37,2013-04-17 17:30:00,
2013-04-17 13:35:00,51.5,36.3,30.35,North,352,1.6,9.2,56,0.00,,,0.00,WeatherDisplay:10.37,2013-04-17 17:35:00,
2013-04-17 13:40:00,51.7,37.8,30.35,NNE,19,1.6,9.2,59,0.00,,,0.00,WeatherDisplay:10.37,2013-04-17 17:40:00,
2013-04-17 13:45:00,51.8,36.6,30.35,NNE,12,3.2,9.2,56,0.00,,,0.00,WeatherDisplay:10.37,2013-04-17 17:45:00,
2013-04-17 13:50:00,51.3,37.4,30.35,NNE,31,4.5,9.2,59,0.00,,,0.00,WeatherDisplay:10.37,2013-04-17 17:50:00,
2013-04-17 13:55:00,50.8,35.7,30.35,East,92,3.4,9.2,56,0.00,,,0.00,WeatherDisplay:10.37,2013-04-17 17:55:00,
2013-04-17 14:00:00,50.7,36.0,30.35,ENE,68,3.2,9.2,57,0.00,,,0.00,WeatherDisplay:10.37,2013-04-17 18:00:00,
2013-04-17 14:05:00,51.0,36.7,30.35,North,352,2.3,9.2,58,0.00,,,0.00,WeatherDisplay:10.37,2013-04-17 18:05:00,
2013-04-17 14:10:00,51.0,38.4,30.35,NE,50,5.3,9.2,62,0.00,,,0.00,WeatherDisplay:10.37,2013-04-17 18:10:00,
2013-04-17 14:15:00,50.7,37.3,30.35,NNW,333,3.6,9.2,60,0.00,,,0.00,WeatherDisplay:10.37,2013-04-17 18:15:00,
2013-04-17 14:20:00,50.5,34.0,30.35,NE,37,3.9,9.2,53,0.00,,,0.00,WeatherDisplay:10.37,2013-04-17 18:20:00,
2013-04-17 14:25:00,50.7,36.0,30.35,NNE,12,2.6,9.2,57,0.00,,,0.00,WeatherDisplay:10.37,2013-04-17 18:25:00,
2013-04-17 14:30:00,50.6,34.6,30.36,NE,54,5.1,9.2,54,0.00,,,0.00,WeatherDisplay:10.37,2013-04-17 18:30:00,
2013-04-17 14:35:00,50.2,33.7,30.35,ENE,71,5.8,9.2,53,0.00,,,0.00,WeatherDisplay:10.37,2013-04-17 18:35:00,
2013-04-17 14:40:00,50.3,35.2,30.35,NE,40,1.0,9.2,56,0.00,,,0.00,WeatherDisplay:10.37,2013-04-17 18:40:00,
2013-04-17 14:45:00,50.7,33.7,30.35,West,270,1.0,9.2,52,0.00,,,0.00,WeatherDisplay:10.37,2013-04-17 18:45:00,
2013-04-17 14:50:00,51.4,36.2,30.34,North,6,1.9,9.2,56,0.00,,,0.00,WeatherDisplay:10.37,2013-04-17 18:50:00,
2013-04-17 14:55:00,51.6,33.6,30.34,NNE,18,3.5,9.2,50,0.00,,,0.00,WeatherDisplay:10.37,2013-04-17 18:55:00,
2013-04-17 15:00:00,51.8,34.7,30.34,ENE,76,3.4,9.2,52,0.00,,,0.00,WeatherDisplay:10.37,2013-04-17 19:00:00,
2013-04-17 15:05:00,52.2,35.1,30.33,ENE,61,4.4,9.2,52,0.00,,,0.00,WeatherDisplay:10.37,2013-04-17 19:05:00,
2013-04-17 15:10:00,52.3,35.2,30.33,NNE,30,2.5,9.2,52,0.00,,,0.00,WeatherDisplay:10.37,2013-04-17 19:10:00,
2013-04-17 15:15:00,51.8,31.7,30.33,NE,50,5.3,9.2,46,0.00,,,0.00,WeatherDisplay:10.37,2013-04-17 19:15:00,
2013-04-17 15:20:00,51.6,33.6,30.34,ENE,71,3.4,9.2,50,0.00,,,0.00,WeatherDisplay:10.37,2013-04-17 19:20:00,
2013-04-17 15:25:00,52.0,32.9,30.35,NW,308,1.4,9.2,48,0.00,,,0.00,WeatherDisplay:10.37,2013-04-17 19:25:00,
2013-04-17 15:30:00,52.4,32.7,30.35,East,91,1.0,9.2,47,0.00,,,0.00,WeatherDisplay:10.37,2013-04-17 19:30:00,
2013-04-17 15:35:00,52.2,33.1,30.35,NW,322,1.6,9.2,48,0.00,,,0.00,WeatherDisplay:10.37,2013-04-17 19:35:00,
2013-04-17 15:40:00,52.7,32.5,30.35,NE,53,2.8,9.2,46,0.00,,,0.00,WeatherDisplay:10.37,2013-04-17 19:40:00,
2013-04-17 15:45:00,52.8,32.6,30.34,NNW,340,3.1,9.2,46,0.00,,,0.00,WeatherDisplay:10.37,2013-04-17 19:45:00,
2013-04-17 15:50:00,53.1,33.4,30.34,NNE,33,4.3,9.2,47,0.00,,,0.00,WeatherDisplay:10.37,2013-04-17 19:50:00,
2013-04-17 15:55:00,53.0,33.3,30.34,NNW,348,1.7,9.2,47,0.00,,,0.00,WeatherDisplay:10.37,2013-04-17 19:55:00,
2013-04-17 16:00:00,53.2,34.0,30.34,North,353,2.0,9.2,48,0.00,,,0.00,WeatherDisplay:10.37,2013-04-17 20:00:00,
2013-04-17 16:05:00,53.2,34.5,30.33,East,82,4.2,12.0,49,0.00,,,0.00,WeatherDisplay:10.37,2013-04-17 20:05:00,
2013-04-17 16:10:00,53.2,34.0,30.34,NE,39,1.8,12.0,48,0.00,,,0.00,WeatherDisplay:10.37,2013-04-17 20:10:00,
2013-04-17 16:15:00,52.9,33.2,30.34,East,89,3.3,12.0,47,0.00,,,0.00,WeatherDisplay:10.37,2013-04-17 20:15:00,
2013-04-17 16:20:00,53.3,34.6,30.34,NNW,343,3.3,12.0,49,0.00,,,0.00,WeatherDisplay:10.37,2013-04-17 20:20:00,
2013-04-17 16:25:00,52.8,31.5,30.34,ENE,68,3.8,12.0,44,0.00,,,0.00,WeatherDisplay:10.37,2013-04-17 20:25:00,
2013-04-17 16:30:00,52.7,33.5,30.33,NNW,346,1.9,12.0,48,0.00,,,0.00,WeatherDisplay:10.37,2013-04-17 20:30:00,
2013-04-17 16:35:00,53.0,33.3,30.33,NNE,18,3.4,12.0,47,0.00,,,0.00,WeatherDisplay:10.37,2013-04-17 20:35:00,
2013-04-17 16:40:00,52.7,33.5,30.33,ENE,68,5.2,12.0,48,0.00,,,0.00,WeatherDisplay:10.37,2013-04-17 20:40:00,
2013-04-17 16:45:00,52.0,32.4,30.34,ENE,58,7.4,12.0,47,0.00,,,0.00,WeatherDisplay:10.37,2013-04-17 20:45:00,
2013-04-17 16:50:00,51.7,34.1,30.34,NNE,32,2.6,12.0,51,0.00,,,0.00,WeatherDisplay:10.37,2013-04-17 20:50:00,
2013-04-17 16:55:00,51.9,34.3,30.33,ENE,74,3.0,12.0,51,0.00,,,0.00,WeatherDisplay:10.37,2013-04-17 20:55:00,
2013-04-17 17:00:00,52.2,32.6,30.33,NE,39,3.0,12.0,47,0.00,,,0.00,WeatherDisplay:10.37,2013-04-17 21:00:00,
2013-04-17 17:05:00,52.5,33.9,30.33,NNE,15,4.6,12.0,49,0.00,,,0.00,WeatherDisplay:10.37,2013-04-17 21:05:00,
2013-04-17 17:10:00,52.6,33.5,30.33,NE,36,3.7,12.0,48,0.00,,,0.00,WeatherDisplay:10.37,2013-04-17 21:10:00,
2013-04-17 17:15:00,52.6,34.5,30.33,North,359,4.5,12.0,50,0.00,,,0.00,WeatherDisplay:10.37,2013-04-17 21:15:00,
2013-04-17 17:20:00,52.5,34.4,30.33,NE,52,3.6,12.0,50,0.00,,,0.00,WeatherDisplay:10.37,2013-04-17 21:20:00,
2013-04-17 17:25:00,52.5,34.9,30.33,ENE,63,3.2,12.0,51,0.00,,,0.00,WeatherDisplay:10.37,2013-04-17 21:25:00,
2013-04-17 17:30:00,52.5,34.9,30.33,NE,50,4.4,12.0,51,0.00,,,0.00,WeatherDisplay:10.37,2013-04-17 21:30:00,
2013-04-17 17:35:00,52.1,33.5,30.33,NNE,32,4.1,12.0,49,0.00,,,0.00,WeatherDisplay:10.37,2013-04-17 21:35:00,
2013-04-17 17:40:00,51.9,32.3,30.33,ENE,57,6.1,12.0,47,0.00,,,0.00,WeatherDisplay:10.37,2013-04-17 21:40:00,
2013-04-17 17:45:00,51.6,32.0,30.33,ENE,65,5.1,12.0,47,0.00,,,0.00,WeatherDisplay:10.37,2013-04-17 21:45:00,
2013-04-17 17:50:00,51.6,33.0,30.33,ENE,68,4.1,12.0,49,0.00,,,0.00,WeatherDisplay:10.37,2013-04-17 21:50:00,
2013-04-17 17:55:00,51.6,33.0,30.33,NNE,12,3.8,12.0,49,0.00,,,0.00,WeatherDisplay:10.37,2013-04-17 21:55:00,
2013-04-17 18:00:00,51.5,33.0,30.33,NE,37,3.9,12.0,49,0.00,,,0.00,WeatherDisplay:10.37,2013-04-17 22:00:00,
2013-04-17 18:05:00,51.5,31.9,30.33,NE,55,4.1,12.0,47,0.00,,,0.00,WeatherDisplay:10.37,2013-04-17 22:05:00,
2013-04-17 18:10:00,51.5,32.4,30.33,ENE,78,7.1,12.0,48,0.00,,,0.00,WeatherDisplay:10.37,2013-04-17 22:10:00,
2013-04-17 18:15:00,51.2,32.2,30.32,NE,39,3.8,12.0,48,0.00,,,0.00,WeatherDisplay:10.37,2013-04-17 22:15:00,
2013-04-17 18:20:00,51.1,32.6,30.33,ENE,60,2.2,12.0,49,0.00,,,0.00,WeatherDisplay:10.37,2013-04-17 22:20:00,
2013-04-17 18:25:00,51.1,33.6,30.32,NE,51,2.2,12.0,51,0.00,,,0.00,WeatherDisplay:10.37,2013-04-17 22:25:00,
2013-04-17 18:30:00,51.1,31.0,30.31,East,81,9.1,12.0,46,0.00,,,0.00,WeatherDisplay:10.37,2013-04-17 22:30:00,
2013-04-17 18:35:00,50.8,30.7,30.31,ENE,68,4.7,13.0,46,0.00,,,0.00,WeatherDisplay:10.37,2013-04-17 22:35:00,
2013-04-17 18:40:00,50.6,31.1,30.31,ENE,71,2.3,13.0,47,0.00,,,0.00,WeatherDisplay:10.37,2013-04-17 22:40:00,
2013-04-17 18:45:00,50.7,31.2,30.31,East,92,2.5,13.0,47,0.00,,,0.00,WeatherDisplay:10.37,2013-04-17 22:45:00,
2013-04-17 18:50:00,50.6,31.1,30.31,East,94,2.7,13.0,47,0.00,,,0.00,WeatherDisplay:10.37,2013-04-17 22:50:00,
2013-04-17 18:55:00,50.5,29.9,30.30,ENE,78,5.7,13.0,45,0.00,,,0.00,WeatherDisplay:10.37,2013-04-17 22:55:00,
2013-04-17 19:00:00,50.2,29.1,30.30,East,89,3.2,13.0,44,0.00,,,0.00,WeatherDisplay:10.37,2013-04-17 23:00:00,
2013-04-17 19:05:00,49.9,29.9,30.30,ENE,72,1.9,13.0,46,0.00,,,0.00,WeatherDisplay:10.37,2013-04-17 23:05:00,
2013-04-17 19:10:00,49.6,30.2,30.30,East,92,3.2,13.0,47,0.00,,,0.00,WeatherDisplay:10.37,2013-04-17 23:10:00,
2013-04-17 19:15:00,49.2,30.3,30.31,East,101,5.8,13.0,48,0.00,,,0.00,WeatherDisplay:10.37,2013-04-17 23:15:00,
2013-04-17 19:20:00,48.9,31.1,30.32,ENE,58,2.2,13.0,50,0.00,,,0.00,WeatherDisplay:10.37,2013-04-17 23:20:00,
2013-04-17 19:25:00,48.6,31.3,30.32,ESE,108,2.5,13.0,51,0.00,,,0.00,WeatherDisplay:10.37,2013-04-17 23:25:00,
2013-04-17 19:30:00,48.3,31.5,30.32,ENE,58,1.4,13.0,52,0.00,,,0.00,WeatherDisplay:10.37,2013-04-17 23:30:00,
2013-04-17 19:35:00,48.0,32.1,30.31,ESE,108,1.6,13.0,54,0.00,,,0.00,WeatherDisplay:10.37,2013-04-17 23:35:00,
2013-04-17 19:40:00,47.8,32.4,30.31,East,87,2.4,13.0,55,0.00,,,0.00,WeatherDisplay:10.37,2013-04-17 23:40:00,
2013-04-17 19:45:00,47.6,32.7,30.31,ENE,75,0.1,13.0,56,0.00,,,0.00,WeatherDisplay:10.37,2013-04-17 23:45:00,
2013-04-17 19:50:00,47.3,32.4,30.32,ENE,68,1.6,13.0,56,0.00,,,0.00,WeatherDisplay:10.37,2013-04-17 23:50:00,
2013-04-17 19:55:00,47.2,32.7,30.32,ENE,68,0.5,13.0,57,0.00,,,0.00,WeatherDisplay:10.37,2013-04-17 23:55:00,
2013-04-17 20:00:00,46.9,32.4,30.32,East,92,0.3,13.0,57,0.00,,,0.00,WeatherDisplay:10.37,2013-04-18 00:00:00,
2013-04-17 20:05:00,46.8,32.8,30.32,ENE,75,0.3,13.0,58,0.00,,,0.00,WeatherDisplay:10.37,2013-04-18 00:05:00,
2013-04-17 20:10:00,46.7,33.1,30.32,ENE,72,1.1,13.0,59,0.00,,,0.00,WeatherDisplay:10.37,2013-04-18 00:10:00,
2013-04-17 20:15:00,46.6,33.0,30.31,ENE,68,0.1,13.0,59,0.00,,,0.00,WeatherDisplay:10.37,2013-04-18 00:15:00,
2013-04-17 20:20:00,46.4,33.3,30.31,ENE,78,1.6,13.0,60,0.00,,,0.00,WeatherDisplay:10.37,2013-04-18 00:20:00,
2013-04-17 20:25:00,46.2,33.5,30.30,ENE,77,0.0,13.0,61,0.00,,,0.00,WeatherDisplay:10.37,2013-04-18 00:25:00,
2013-04-17 20:30:00,46.0,33.3,30.30,ENE,74,0.0,13.0,61,0.00,,,0.00,WeatherDisplay:10.37,2013-04-18 00:30:00,
2013-04-17 20:35:00,45.7,33.4,30.30,ENE,72,0.0,13.0,62,0.00,,,0.00,WeatherDisplay:10.37,2013-04-18 00:35:00,
2013-04-17 20:40:00,45.7,33.4,30.30,ENE,75,0.7,13.0,62,0.00,,,0.00,WeatherDisplay:10.37,2013-04-18 00:40:00,
2013-04-17 20:45:00,45.5,33.2,30.30,ENE,75,1.5,13.0,62,0.00,,,0.00,WeatherDisplay:10.37,2013-04-18 00:45:00,
2013-04-17 20:50:00,45.3,33.0,30.29,East,85,0.1,13.0,62,0.00,,,0.00,WeatherDisplay:10.37,2013-04-18 00:50:00,
2013-04-17 20:55:00,45.2,33.3,30.30,ENE,78,0.6,13.0,63,0.00,,,0.00,WeatherDisplay:10.37,2013-04-18 00:55:00,
2013-04-17 21:00:00,45.1,33.2,30.30,East,101,0.3,13.0,63,0.00,,,0.00,WeatherDisplay:10.37,2013-04-18 01:00:00,
2013-04-17 21:05:00,44.9,33.1,30.30,ENE,63,1.3,13.0,63,0.00,,,0.00,WeatherDisplay:10.37,2013-04-18 01:05:00,
2013-04-17 21:10:00,44.8,33.0,30.30,ENE,65,0.5,13.0,63,0.00,,,0.00,WeatherDisplay:10.37,2013-04-18 01:10:00,
2013-04-17 21:15:00,44.8,33.0,30.29,ENE,74,2.0,13.0,63,0.00,,,0.00,WeatherDisplay:10.37,2013-04-18 01:15:00,
2013-04-17 21:20:00,44.9,32.7,30.29,ENE,75,2.5,13.0,62,0.00,,,0.00,WeatherDisplay:10.37,2013-04-18 01:20:00,
2013-04-17 21:25:00,45.2,32.9,30.29,East,81,3.0,13.0,62,0.00,,,0.00,WeatherDisplay:10.37,2013-04-18 01:25:00,
2013-04-17 21:30:00,45.2,32.5,30.29,East,91,3.3,13.0,61,0.00,,,0.00,WeatherDisplay:10.37,2013-04-18 01:30:00,
2013-04-17 21:35:00,45.3,32.6,30.29,ENE,62,2.5,13.0,61,0.00,,,0.00,WeatherDisplay:10.37,2013-04-18 01:35:00,
2013-04-17 21:40:00,45.1,32.4,30.28,East,98,2.2,13.0,61,0.00,,,0.00,WeatherDisplay:10.37,2013-04-18 01:40:00,
2013-04-17 21:45:00,45.2,32.5,30.28,ENE,75,2.9,13.0,61,0.00,,,0.00,WeatherDisplay:10.37,2013-04-18 01:45:00,
2013-04-17 21:50:00,45.2,32.5,30.28,East,96,3.1,13.0,61,0.00,,,0.00,WeatherDisplay:10.37,2013-04-18 01:50:00,
2013-04-17 21:55:00,45.1,32.4,30.29,ENE,65,1.5,13.0,61,0.00,,,0.00,WeatherDisplay:10.37,2013-04-18 01:55:00,
2013-04-17 22:00:00,45.1,32.4,30.28,ENE,65,2.0,13.0,61,0.00,,,0.00,WeatherDisplay:10.37,2013-04-18 02:00:00,
2013-04-17 22:05:00,44.8,32.6,30.28,ENE,75,1.1,13.0,62,0.00,,,0.00,WeatherDisplay:10.37,2013-04-18 02:05:00,
2013-04-17 22:10:00,44.7,32.1,30.27,East,85,1.5,13.0,61,0.00,,,0.00,WeatherDisplay:10.37,2013-04-18 02:10:00,
2013-04-17 22:15:00,44.9,32.3,30.27,ENE,75,0.9,13.0,61,0.00,,,0.00,WeatherDisplay:10.37,2013-04-18 02:15:00,
2013-04-17 22:20:00,44.9,32.3,30.26,ENE,69,2.2,13.0,61,0.00,,,0.00,WeatherDisplay:10.37,2013-04-18 02:20:00,
2013-04-17 22:25:00,44.8,32.2,30.26,ENE,72,1.2,13.0,61,0.00,,,0.00,WeatherDisplay:10.37,2013-04-18 02:25:00,
2013-04-17 22:30:00,44.8,32.2,30.27,East,93,0.4,13.0,61,0.00,,,0.00,WeatherDisplay:10.37,2013-04-18 02:30:00,
2013-04-17 22:35:00,44.8,32.2,30.27,ESE,122,0.9,13.0,61,0.00,,,0.00,WeatherDisplay:10.37,2013-04-18 02:35:00,
2013-04-17 22:40:00,44.7,32.1,30.27,East,98,0.1,13.0,61,0.00,,,0.00,WeatherDisplay:10.37,2013-04-18 02:40:00,
2013-04-17 22:45:00,44.6,32.0,30.27,East,97,0.0,13.0,61,0.00,,,0.00,WeatherDisplay:10.37,2013-04-18 02:45:00,
2013-04-17 22:50:00,44.4,31.8,30.27,East,98,0.0,13.0,61,0.00,,,0.00,WeatherDisplay:10.37,2013-04-18 02:50:00,
2013-04-17 22:55:00,44.1,31.9,30.26,East,98,0.0,13.0,62,0.00,,,0.00,WeatherDisplay:10.37,2013-04-18 02:55:00,
2013-04-17 23:00:00,44.1,31.9,30.26,ENE,62,0.4,13.0,62,0.00,,,0.00,WeatherDisplay:10.37,2013-04-18 03:00:00,
2013-04-17 23:05:00,44.1,32.3,30.26,ENE,63,0.3,13.0,63,0.00,,,0.00,WeatherDisplay:10.37,2013-04-18 03:05:00,
2013-04-17 23:10:00,43.9,32.1,30.26,ENE,62,0.0,13.0,63,0.00,,,0.00,WeatherDisplay:10.37,2013-04-18 03:10:00,
2013-04-17 23:15:00,43.8,32.0,30.26,ENE,63,0.1,13.0,63,0.00,,,0.00,WeatherDisplay:10.37,2013-04-18 03:15:00,
2013-04-17 23:20:00,43.8,32.4,30.25,ENE,64,0.6,13.0,64,0.00,,,0.00,WeatherDisplay:10.37,2013-04-18 03:20:00,
2013-04-17 23:25:00,43.7,32.3,30.25,ENE,64,0.0,13.0,64,0.00,,,0.00,WeatherDisplay:10.37,2013-04-18 03:25:00,
2013-04-17 23:30:00,43.4,32.4,30.25,ENE,64,0.0,13.0,65,0.00,,,0.00,WeatherDisplay:10.37,2013-04-18 03:30:00,
2013-04-17 23:35:00,43.1,32.1,30.26,ENE,64,0.0,13.0,65,0.00,,,0.00,WeatherDisplay:10.37,2013-04-18 03:35:00,
2013-04-17 23:40:00,42.7,31.7,30.26,East,88,0.2,13.0,65,0.00,,,0.00,WeatherDisplay:10.37,2013-04-18 03:40:00,
2013-04-17 23:45:00,42.8,32.2,30.26,East,87,0.0,13.0,66,0.00,,,0.00,WeatherDisplay:10.37,2013-04-18 03:45:00,
2013-04-17 23:50:00,42.7,31.7,30.26,East,88,0.0,13.0,65,0.00,,,0.00,WeatherDisplay:10.37,2013-04-18 03:50:00,
2013-04-17 23:55:00,42.4,31.8,30.27,East,88,0.0,0.0,66,0.00,,,0.00,WeatherDisplay:10.37,2013-04-18 03:55:00,